When you browse on this site, cookies collect data to enhance your experience and personalize the content and advertising you see.
Visit our Privacy Policy to learn more. By continuing to use the site, you agree to this use of cookies and data.
  • In Hungary
  • List of Countries
  • For 7 days
  • Water Temperature
  • Satellite Maps
  • Weather Map
  • News
  • Weather Widgets
  • user-avatar
    Login

    Hourly Weather Albany

    Today, 21 January, Monday

    Time Temperature Precipitation Wind Pressure Humidity
    00:00 +20°C° 0 mm 2 mps 754 mmHg 88%
    01:00 +20°C° 0 mm 2 mps 753 mmHg 90%
    02:00 +20°C° 0 mm 2 mps 753 mmHg 94%
    03:00 +19°C° 0 mm 3 mps 753 mmHg 95%
    04:00 +19°C° 0 mm 3 mps 753 mmHg 95%
    05:00 +19°C° 0 mm 3 mps 753 mmHg 96%
    06:00 +20°C° 0 mm 3 mps 753 mmHg 92%
    07:00 +21°C° 0 mm 3 mps 754 mmHg 87%
    08:00 +21°C° 0 mm 4 mps 754 mmHg 83%
    09:00 +23°C° 0 mm 4 mps 754 mmHg 74%
    10:00 +26°C° 0 mm 4 mps 754 mmHg 65%
    11:00 +27°C° 0 mm 4 mps 754 mmHg 56%
    12:00 +27°C° 0 mm 5 mps 754 mmHg 54%
    13:00 +27°C° 0 mm 5 mps 754 mmHg 51%
    14:00 +27°C° 0 mm 5 mps 753 mmHg 49%
    15:00 +26°C° 0 mm 6 mps 753 mmHg 53%
    16:00 +24°C° 0 mm 6 mps 753 mmHg 57%
    17:00 +23°C° 0 mm 6 mps 754 mmHg 61%
    18:00 +22°C° 0 mm 5 mps 754 mmHg 69%
    19:00 +21°C° 0 mm 4 mps 754 mmHg 78%
    20:00 +19°C° 0 mm 3 mps 754 mmHg 86%
    21:00 +19°C° 0 mm 3 mps 755 mmHg 85%
    22:00 +20°C° 0 mm 3 mps 755 mmHg 83%
    23:00 +20°C° 0 mm 3 mps 755 mmHg 81%

    Tomorrow, 22 January, Tuesday

    Time Temperature Precipitation Wind Pressure Humidity
    00:00 +19°C° 0 mm 3 mps 755 mmHg 84%
    01:00 +19°C° 0 mm 3 mps 754 mmHg 86%
    02:00 +18°C° 0 mm 2 mps 754 mmHg 89%
    03:00 +18°C° 0 mm 3 mps 754 mmHg 89%
    04:00 +18°C° 0 mm 3 mps 754 mmHg 89%
    05:00 +18°C° 0 mm 3 mps 754 mmHg 90%
    06:00 +17°C° 0.1 mm 5 mps 754 mmHg 88%
    07:00 +19°C° 0.1 mm 6 mps 754 mmHg 86%
    08:00 +18°C° 0.1 mm 7 mps 755 mmHg 84%
    09:00 +18°C° 0.2 mm 7 mps 755 mmHg 83%
    10:00 +18°C° 0.2 mm 7 mps 755 mmHg 83%
    11:00 +18°C° 0.2 mm 7 mps 755 mmHg 83%
    12:00 +18°C° 0.2 mm 7 mps 755 mmHg 82%
    13:00 +18°C° 0.2 mm 7 mps 754 mmHg 82%
    14:00 +18°C° 0.2 mm 7 mps 754 mmHg 82%
    15:00 +18°C° 0.2 mm 8 mps 753 mmHg 82%
    16:00 +18°C° 0.2 mm 8 mps 753 mmHg 82%
    17:00 +18°C° 0.2 mm 8 mps 752 mmHg 82%
    18:00 +18°C° 0.2 mm 8 mps 752 mmHg 82%
    19:00 +18°C° 0.2 mm 8 mps 752 mmHg 82%
    20:00 +18°C° 0.2 mm 8 mps 752 mmHg 81%
    21:00 +18°C° 0.2 mm 8 mps 752 mmHg 82%
    22:00 +18°C° 0.2 mm 8 mps 751 mmHg 84%
    23:00 +20°C° 0.2 mm 7 mps 751 mmHg 85%

    Day after tomorrow, 23 January, Wednesday

    Time Temperature Precipitation Wind Pressure Humidity
    00:00 +20°C° 0.2 mm 7 mps 750 mmHg 86%
    01:00 +20°C° 0.2 mm 7 mps 749 mmHg 88%
    02:00 +20°C° 0.2 mm 7 mps 748 mmHg 90%
    03:00 +20°C° 0.2 mm 7 mps 748 mmHg 90%
    04:00 +20°C° 0.2 mm 7 mps 747 mmHg 90%
    05:00 +21°C° 0.2 mm 8 mps 746 mmHg 90%
    06:00 +21°C° 0.1 mm 8 mps 746 mmHg 89%
    07:00 +22°C° 0.1 mm 8 mps 746 mmHg 87%
    08:00 +22°C° 0.1 mm 7 mps 746 mmHg 86%
    09:00 +23°C° 0.5 mm 7 mps 745 mmHg 72%
    10:00 +24°C° 0.5 mm 7 mps 745 mmHg 59%
    11:00 +26°C° 0.5 mm 7 mps 745 mmHg 45%
    12:00 +27°C° 0 mm 7 mps 744 mmHg 40%
    13:00 +27°C° 0 mm 7 mps 743 mmHg 36%
    14:00 +28°C° 0 mm 8 mps 742 mmHg 31%
    15:00 +27°C° 0.1 mm 7 mps 742 mmHg 39%
    16:00 +24°C° 0.1 mm 6 mps 742 mmHg 46%
    17:00 +23°C° 0.1 mm 5 mps 741 mmHg 54%
    18:00 +22°C° 0.2 mm 5 mps 742 mmHg 60%
    19:00 +21°C° 0.2 mm 5 mps 743 mmHg 66%
    20:00 +19°C° 0.2 mm 5 mps 743 mmHg 73%
    21:00 +19°C° 0 mm 5 mps 744 mmHg 75%
    22:00 +17°C° 0 mm 5 mps 745 mmHg 77%
    23:00 +17°C° 0 mm 5 mps 746 mmHg 80%

    24 January, Thursday

    Time Temperature Precipitation Wind Pressure Humidity
    00:00 +17°C° 0.1 mm 7 mps 746 mmHg 79%
    01:00 +18°C° 0.1 mm 9 mps 747 mmHg 79%
    02:00 +18°C° 0.1 mm 11 mps 747 mmHg 78%
    03:00 +18°C° 0.1 mm 11 mps 748 mmHg 78%
    04:00 +18°C° 0.1 mm 10 mps 749 mmHg 78%
    05:00 +17°C° 0.1 mm 10 mps 750 mmHg 78%
    06:00 +17°C° 0.1 mm 9 mps 751 mmHg 78%
    07:00 +17°C° 0.1 mm 9 mps 752 mmHg 77%
    08:00 +17°C° 0.1 mm 9 mps 753 mmHg 77%
    09:00 +17°C° 0.1 mm 8 mps 754 mmHg 77%
    10:00 +16°C° 0.1 mm 8 mps 754 mmHg 77%
    11:00 +16°C° 0.1 mm 8 mps 755 mmHg 77%
    12:00 +17°C° 0.1 mm 7 mps 755 mmHg 72%
    13:00 +17°C° 0.1 mm 7 mps 756 mmHg 68%
    14:00 +17°C° 0.1 mm 7 mps 756 mmHg 63%
    15:00 +17°C° 0 mm 7 mps 756 mmHg 63%
    16:00 +17°C° 0 mm 6 mps 757 mmHg 64%
    17:00 +16°C° 0 mm 6 mps 757 mmHg 64%
    18:00 +16°C° 0 mm 5 mps 757 mmHg 66%
    19:00 +15°C° 0 mm 5 mps 758 mmHg 69%
    20:00 +15°C° 0 mm 5 mps 758 mmHg 71%
    21:00 +15°C° 0 mm 4 mps 758 mmHg 71%
    22:00 +16°C° 0 mm 3 mps 759 mmHg 71%
    23:00 +14°C° 0 mm 3 mps 759 mmHg 70%

    25 January, Friday

    Time Temperature Precipitation Wind Pressure Humidity
    00:00 +15°C° 0 mm 2 mps 758 mmHg 71%
    01:00 +15°C° 0 mm 2 mps 758 mmHg 72%
    02:00 +15°C° 0 mm 1 mps 758 mmHg 73%
    03:00 +14°C° 0 mm 1 mps 758 mmHg 75%
    04:00 +14°C° 0 mm 2 mps 758 mmHg 77%
    05:00 +14°C° 0 mm 2 mps 758 mmHg 79%
    06:00 +15°C° 0 mm 2 mps 758 mmHg 73%
    07:00 +17°C° 0 mm 2 mps 759 mmHg 67%
    08:00 +18°C° 0 mm 2 mps 759 mmHg 61%
    09:00 +20°C° 0 mm 2 mps 759 mmHg 54%
    10:00 +23°C° 0 mm 2 mps 758 mmHg 47%
    11:00 +25°C° 0 mm 1 mps 758 mmHg 40%
    12:00 +25°C° 0 mm 2 mps 758 mmHg 40%
    13:00 +25°C° 0 mm 3 mps 757 mmHg 41%
    14:00 +26°C° 0 mm 4 mps 757 mmHg 41%
    15:00 +23°C° 0 mm 5 mps 756 mmHg 47%
    16:00 +22°C° 0 mm 5 mps 756 mmHg 52%
    17:00 +21°C° 0 mm 6 mps 756 mmHg 57%
    18:00 +20°C° 0 mm 5 mps 756 mmHg 61%
    19:00 +19°C° 0 mm 5 mps 757 mmHg 65%
    20:00 +17°C° 0 mm 5 mps 757 mmHg 68%
    21:00 +18°C° 0 mm 4 mps 757 mmHg 71%
    22:00 +17°C° 0 mm 4 mps 757 mmHg 73%
    23:00 +17°C° 0 mm 4 mps 757 mmHg 76%

    26 January, Saturday

    Time Temperature Precipitation Wind Pressure Humidity
    00:00 +17°C° 0 mm 4 mps 757 mmHg 78%
    01:00 +15°C° 0 mm 4 mps 757 mmHg 79%
    02:00 +15°C° 0 mm 4 mps 757 mmHg 81%
    03:00 +15°C° 0 mm 4 mps 757 mmHg 82%
    04:00 +15°C° 0 mm 5 mps 757 mmHg 83%
    05:00 +15°C° 0 mm 5 mps 758 mmHg 84%
    06:00 +16°C° 0 mm 5 mps 758 mmHg 76%
    07:00 +17°C° 0 mm 5 mps 759 mmHg 69%
    08:00 +19°C° 0 mm 6 mps 759 mmHg 61%
    09:00 +19°C° 0 mm 6 mps 760 mmHg 59%
    10:00 +20°C° 0 mm 6 mps 760 mmHg 57%
    11:00 +20°C° 0 mm 6 mps 760 mmHg 55%
    12:00 +20°C° 0 mm 6 mps 760 mmHg 54%
    13:00 +21°C° 0 mm 6 mps 760 mmHg 52%
    14:00 +21°C° 0 mm 6 mps 760 mmHg 50%
    15:00 +20°C° 0 mm 6 mps 760 mmHg 52%
    16:00 +20°C° 0 mm 6 mps 760 mmHg 53%
    17:00 +19°C° 0 mm 6 mps 760 mmHg 54%
    18:00 +17°C° 0 mm 5 mps 761 mmHg 59%
    19:00 +17°C° 0 mm 4 mps 762 mmHg 64%
    20:00 +15°C° 0 mm 4 mps 762 mmHg 69%
    21:00 +14°C° 0 mm 4 mps 762 mmHg 70%
    22:00 +14°C° 0 mm 3 mps 763 mmHg 71%
    23:00 +13°C° 0 mm 3 mps 763 mmHg 72%
    Show more